Meteopurmerend
purmerend
Purmerend - Baaienwijk



My webcam  My webcam


Onweer radar Meer informatie blitzortung!


Regen radar Meer informatie rain snow radar


Bezoek onze andere website:

CandyAppleRed WebdesignWebdesign Purmerend Candy Apple Red

MeteopurmerendBlog

Template documentation
and downloads



Het weer levert geen direct gevaar op.    Er zijn geen waarschuwingen afgegeven.

15 daagse weersverwachting Lappeenranta (FI)

  • Overzicht
  • Per uur
  • 15 dagen
  • Extra
  • Vergelijk
  • Kaarten
  • Dagkaart
  • Meer »
  • Info
  • Statistieken
  • Directe link
    Temp 6h Neerslag Wind  
 04:35     21:55    Daglengte: 17:20 Vandaag
09:00
22°
 
3
15:00
23°
0.5 mm
3
21:00
20°
9.9 mm
2
 04:37     21:52    Daglengte: 17:15 Morgen
03:00
19°
4.3 mm
3
09:00
19°
4.6 mm
4
15:00
22°
13.2 mm
6
warningclass
21:00
20°
11.1 mm
5
 04:40     21:49    Daglengte: 17:09 Vrijdag 30 Jul
03:00
17°
 
5
09:00
19°
 
6
15:00
19°
25.1 mm
7
21:00
17°
10.2 mm
5
 04:42     21:47    Daglengte: 17:05 Zaterdag 31 Jul
03:00
16°
6.4 mm
3
Locatie info
Region: Etelä-Karjala
Latitude: 61.0555°N
Longitude: 28.1889°E
104 masl
Postcode: 53100
Temp/Neerslag /Baro Onweer/Dauwpunt
    Temp Baro 1h Neerslag Dauwpunt Wind UV Bewolking  
 04:35     21:55    Daglengte: 17:20 Vandaag
08:00
21°
1011.2 hPa   15.1°
3
Windvlaag: 1.8 m/s
60%
09:00
22°
1010.9 hPa   14.2°
3
Windvlaag: 2.1 m/s
68%
10:00
24°
1010.3 hPa   13.9°
3
Windvlaag: 2.1 m/s
74%
11:00
25°
1010.0 hPa   14.0°
3
Windvlaag: 2.3 m/s
78%
12:00
26°
1009.3 hPa
32%
14.6°
3
Windvlaag: 4.4 m/s
81%
13:00
25°
1009.1 hPa
82%
15.8°
3
Windvlaag: 5.6 m/s
85%
14:00
24°
1008.9 hPa
77%
20.6°
3
Windvlaag: 8.9 m/s
84%
15:00
23°
1008.6 hPa 0.5 mm
82%
19.9°
3
Windvlaag: 8.2 m/s
86%
16:00
22°
1008.1 hPa 1.3 mm
82%
18.3°
2
Windvlaag: 4.8 m/s
86%
17:00
21°
1007.5 hPa 1.9 mm
82%
17.2°
2
Windvlaag: 0.6 m/s
84%
18:00
21°
1007.1 hPa 1.6 mm
82%
16.8°
2
Windvlaag: 0.3 m/s
86%
19:00
20°
1006.6 hPa 2.0 mm
82%
16.8°
2
Windvlaag: -0.6 m/s
86% warningclass
20:00
20°
1006.1 hPa 1.5 mm
82%
16.4°
3
Windvlaag: 0.1 m/s
77% warningclass
21:00
20°
1005.8 hPa 1.7 mm
82%
17.5°
2
Windvlaag: 1.7 m/s
84%
22:00
19°
1005.3 hPa 1.9 mm
82%
18.2°
2
Windvlaag: 4.1 m/s
86%
23:00
19°
1005.0 hPa 2.4 mm
82%
18.6°
2
Windvlaag: 4.3 m/s
69% warningclass
 04:37     21:52    Daglengte: 17:15 Morgen
00:00
19°
1004.5 hPa
44%
18.8°
3
Windvlaag: 5.6 m/s
64%
01:00
19°
1004.1 hPa
23%
18.7°
3
Windvlaag: 5.8 m/s
60%
02:00
19°
1003.8 hPa
18%
18.5°
3
Windvlaag: 5.3 m/s
79%
03:00
19°
1003.4 hPa
31%
18.3°
3
Windvlaag: 5.1 m/s
53%
04:00
18°
1002.9 hPa
43%
17.7°
3
Windvlaag: 5.5 m/s
64%
05:00
18°
1002.4 hPa
38%
17.4°
3
Windvlaag: 5.3 m/s
65%
06:00
18°
1002.2 hPa
29%
17.2°
3
Windvlaag: 5 m/s
86%
07:00
18°
1001.7 hPa
71%
17.3°
4
Windvlaag: 6 m/s
38%
08:00
19°
1001.2 hPa 2.3 mm
82%
17.2°
4
Windvlaag: 7 m/s
65%
09:00
19°
1000.8 hPa 2.3 mm
82%
17.0°
4
Windvlaag: 6.9 m/s
78%
10:00
20°
1000.4 hPa 2.2 mm
82%
16.3°
4
Windvlaag: 7 m/s
80%
11:00
20°
1000.1 hPa 2.5 mm
82%
15.4°
5
Windvlaag: 7.5 m/s
69% warningclass
12:00
21°
999.8 hPa
82%
15.3°
5
Windvlaag: 7.5 m/s
79%
13:00
21°
999.4 hPa 2.9 mm
82%
13.0°
5
Windvlaag: 8.9 m/s
60% warningclass
14:00
21°
998.9 hPa 3.0 mm
82%
11.0°
6
Windvlaag: 10.1 m/s
63% warningclass
15:00
22°
998.4 hPa 2.7 mm
82%
13.4°
6
Windvlaag: 9.6 m/s
54% warningclass
16:00
21°
998.0 hPa 3.5 mm
81%
16.1°
6
Windvlaag: 9.1 m/s
74% warningclass
17:00
21°
997.7 hPa 3.8 mm
72%
18.2°
5
Windvlaag: 8.9 m/s
40% warningclass
18:00
21°
997.2 hPa 3.8 mm
71%
17.3°
5
Windvlaag: 8.3 m/s
56% warningclass
19:00
21°
996.8 hPa
64%
16.8°
4
Windvlaag: 7.3 m/s
31%
20:00
21°
996.5 hPa
65%
16.3°
4
Windvlaag: 6.2 m/s
10%
21:00
20°
996.4 hPa
21%
16.6°
5
Windvlaag: 6.6 m/s
10%
22:00
19°
996.5 hPa
14%
16.8°
4
Windvlaag: 7.8 m/s
8%
23:00
18°
996.5 hPa
14%
16.0°
4
Windvlaag: 8.4 m/s
4%
 04:40     21:49    Daglengte: 17:09 Vrijdag 30 Jul
00:00
18°
996.3 hPa
14%
15.1°
5
Windvlaag: 7.8 m/s
4%
01:00
18°
996.1 hPa
14%
14.4°
5
Windvlaag: 8.3 m/s
48%
02:00
17°
996.0 hPa
14%
15.7°
6
Windvlaag: 8.4 m/s
50%
03:00
17°
995.8 hPa
14%
15.6°
5
Windvlaag: 8.2 m/s
54%
04:00
17°
995.4 hPa
14%
15.5°
5
Windvlaag: 8.3 m/s
29%
05:00
17°
995.1 hPa
14%
15.7°
5
Windvlaag: 8.6 m/s
35%
06:00
17°
996.4 hPa
25%
15.4°
5
Windvlaag: 8.5 m/s
43%
07:00
17°
996.2 hPa
31%
14.7°
6
Windvlaag: 8.9 m/s
51%
08:00
18°
996.1 hPa
23%
14.4°
6
Windvlaag: 8.6 m/s
42%
09:00
19°
995.8 hPa
25%
13.6°
6
Windvlaag: 8.7 m/s
63%
10:00
19°
995.5 hPa
95%
12.5°
7
Windvlaag: 10 m/s
45%
11:00
19°
995.2 hPa
100%
12.3°
7
Windvlaag: 10.9 m/s
38%
12:00
20°
995.2 hPa 6.1 mm
100%
11.6°
8
Windvlaag: 12.1 m/s
41%
13:00
20°
995.1 hPa 6.5 mm
100%
12.0°
8
Windvlaag: 12.5 m/s
37%
14:00
19°
994.7 hPa 6.3 mm
100%
13.0°
7
Windvlaag: 12.3 m/s
28%
15:00
19°
994.2 hPa 6.1 mm
100%
13.1°
7
Windvlaag: 11 m/s
55%
16:00
19°
994.0 hPa
100%
13.6°
7
Windvlaag: 11.1 m/s
11%
17:00
19°
993.6 hPa 6.2 mm
95%
12.8°
7
Windvlaag: 11.8 m/s
34% warningclass
18:00
19°
993.3 hPa
97%
13.0°
6
Windvlaag: 10.3 m/s
18%
19:00
19°
992.9 hPa
100%
12.2°
6
Windvlaag: 10.8 m/s
33%
20:00
18°
992.7 hPa
100%
12.3°
6
Windvlaag: 10.6 m/s
53%
21:00
17°
992.6 hPa 4.0 mm
97%
12.8°
5
Windvlaag: 9.8 m/s
39%
22:00
17°
992.4 hPa
27%
13.2°
4
Windvlaag: 9 m/s
68%
23:00
16°
992.2 hPa
26%
12.9°
4
Windvlaag: 8 m/s
82%
 04:42     21:47    Daglengte: 17:05 Zaterdag 31 Jul
00:00
16°
991.4 hPa
22%
12.2°
4
Windvlaag: 7.1 m/s
84%
01:00
16°
990.6 hPa 6.4 mm
21%
12.0°
3
Windvlaag: 5.9 m/s
91%
02:00
16°
989.6 hPa
21%
12.1°
3
Windvlaag: 4.2 m/s
79%
03:00
16°
989.5 hPa
21%
11.9°
3
Windvlaag: 3 m/s
71%
04:00
15°
990.7 hPa
21%
13.8°
3
Windvlaag: 17.5 m/s
54% warningclass
05:00
15°
990.8 hPa
21%
13.3°
3
Windvlaag: 14.8 m/s
65%
06:00
15°
991.3 hPa
21%
13.2°
3
Windvlaag: 15.5 m/s
31%
07:00
15°
991.9 hPa
28%
14.0°
4
Windvlaag: 12.4 m/s
76%
Temp/Neerslag /Baro Onweer/Dauwpunt
    Temp Baro Neerslag Dauwpunt Wind Bewolking  
 04:35     21:55    Daglengte: 17:20 Vandaag
09:00
22°
1010.9 hPa   14.2°
3
68%
12:00
26°
1009.3 hPa   14.6°
3
81%
15:00
23°
1008.6 hPa 0.5 mm 19.9°
3
86%
18:00
21°
1007.1 hPa 4.7 mm 16.8°
2
86%
21:00
20°
1005.8 hPa 5.2 mm 17.5°
2
84%
 04:37     21:52    Daglengte: 17:15 Morgen
00:00
19°
1004.5 hPa 4.3 mm 18.8°
3
64%
03:00
19°
1003.4 hPa   18.3°
3
53%
06:00
18°
1002.2 hPa   17.2°
3
86%
09:00
19°
1000.8 hPa 4.6 mm 17.0°
4
78%
12:00
21°
999.8 hPa 4.7 mm 15.3°
5
79% warningclass
15:00
22°
998.4 hPa 8.5 mm 13.4°
6
54% warningclass
18:00
21°
997.2 hPa 11.1 mm 17.3°
5
56% warningclass
21:00
20°
996.4 hPa   16.6°
5
10%
 04:40     21:49    Daglengte: 17:09 Vrijdag 30 Jul
00:00
18°
996.3 hPa   15.1°
5
4%
03:00
17°
995.8 hPa   15.6°
5
54%
06:00
17°
996.4 hPa   15.4°
5
43%
09:00
19°
995.8 hPa   13.6°
6
63%
12:00
20°
995.2 hPa 6.1 mm 11.6°
8
41%
15:00
19°
994.2 hPa 19.0 mm 13.1°
7
55%
18:00
19°
993.3 hPa 6.2 mm 13.0°
6
18%
21:00
17°
992.6 hPa 4.0 mm 12.8°
5
39%
 04:42     21:47    Daglengte: 17:05 Zaterdag 31 Jul
00:00
16°
991.4 hPa   12.2°
4
84%
03:00
16°
989.5 hPa 6.4 mm 11.9°
3
71%
06:00
15°
991.3 hPa   13.2°
3
31%
09:00
17°
992.8 hPa   14.7°
5
20%
12:00
17°
992.2 hPa 25.2 mm 13.8°
6
1%
15:00
20°
995.0 hPa 26.0 mm 13.2°
6
1%
18:00
20°
996.5 hPa 26.5 mm 11.1°
5
1%
21:00
17°
998.1 hPa 26.6 mm 11.8°
4
1%
 04:45     21:44    Daglengte: 16:59 Zondag 01 Aug
00:00
15°
999.2 hPa 26.6 mm 11.8°
3
1%
03:00
13°
999.3 hPa 26.6 mm 12.1°
2
0%
06:00
13°
999.1 hPa 26.6 mm 11.6°
2
1%
09:00
18°
998.1 hPa 26.7 mm 13.2°
4
1%
12:00
15°
997.6 hPa 32.7 mm 14.3°
4
1%
15:00
18°
996.5 hPa 35.0 mm 15.6°
5
1%
18:00
18°
995.4 hPa 37.0 mm 15.5°
4
1%
21:00
16°
995.6 hPa 38.3 mm 14.6°
4
1%
 04:47     21:42    Daglengte: 16:55 Maandag 02 Aug
00:00
14°
997.7 hPa 38.4 mm 13.4°
4
1%
03:00
14°
998.5 hPa 38.4 mm 13.1°
4
0%
06:00
14°
1000.0 hPa 38.4 mm 13.5°
4
1%
09:00
17°
1000.0 hPa 38.4 mm 13.8°
4
1%
12:00
20°
1000.8 hPa 38.8 mm 12.2°
5
1%
15:00
21°
1001.1 hPa 39.7 mm 10.4°
6
1%
18:00
21°
1001.3 hPa 39.8 mm 10.0°
5
1%
21:00
17°
1001.7 hPa 39.8 mm 11.5°
4
1%
 04:50     21:39    Daglengte: 16:49 Dinsdag 03 Aug
00:00
14°
1001.7 hPa 39.8 mm 11.8°
3
1%
03:00
14°
1002.3 hPa 39.8 mm 11.9°
2
1%
06:00
12°
1003.0 hPa 39.9 mm 11.5°
3
1%
09:00
16°
1004.4 hPa 39.9 mm 10.8°
5
1%
12:00
18°
1006.1 hPa 40.0 mm 9.8°
4
0%
15:00
20°
1007.3 hPa 40.2 mm 5.4°
3
0%
18:00
20°
1007.9 hPa 40.2 mm 5.2°
3
0%
21:00
17°
1009.2 hPa 40.2 mm 7.3°
2
1%
 04:52     21:36    Daglengte: 16:44 Woensdag 04 Aug
00:00
15°
1010.5 hPa 40.2 mm 8.3°
2
1%
03:00
15°
1011.3 hPa 40.2 mm 7.8°
2
1%
06:00
14°
1011.9 hPa   7.7°
2
1%
09:00
16°
1012.8 hPa 80.3 mm 7.4°
1
1%
15:00
20°
1012.8 hPa 80.3 mm 5.6°
1
1%
21:00
16°
1013.4 hPa 80.3 mm 10.9°
2
1%
 04:55     21:33    Daglengte: 16:38 Donderdag 05 Aug
03:00
12°
1014.7 hPa 80.3 mm 9.2°
0
0%
09:00
18°
1014.8 hPa 80.3 mm 9.0°
3
0%
15:00
22°
1013.5 hPa 80.3 mm 9.1°
4
0%
21:00
17°
1012.9 hPa 80.4 mm 11.2°
3
1%
 04:57     21:31    Daglengte: 16:34 Vrijdag 06 Aug
03:00
14°
1012.2 hPa 80.4 mm 11.1°
3
1%
09:00
18°
1010.7 hPa 80.4 mm 10.6°
4
1%
15:00
24°
1009.3 hPa 81.1 mm 10.8°
4
1%
21:00
19°
1009.0 hPa 81.5 mm 14.4°
4
1%
 05:00     21:28    Daglengte: 16:28 Zaterdag 07 Aug
03:00
13°
1011.8 hPa 0.7 mm 10.3°
2
54%
09:00
17°
1011.7 hPa 0.4 mm 11.2°
2
66%
15:00
21°
1010.9 hPa 0.4 mm 10.7°
3
58%
21:00
17°
1010.4 hPa 0.6 mm 11.6°
2
68%
 05:02     21:25    Daglengte: 16:23 Zondag 08 Aug
03:00
14°
1010.3 hPa 1.2 mm 11.6°
2
73%
09:00
17°
1009.8 hPa 1.7 mm 12.3°
2
68%
15:00
20°
1009.8 hPa 1.2 mm 12.3°
2
71%
21:00
17°
1009.9 hPa 0.8 mm 12.4°
1
62%
 05:05     21:22    Daglengte: 16:17 Maandag 09 Aug
03:00
14°
1010.9 hPa 0.2 mm 11.7°
1
66%
09:00
17°
1011.5 hPa 0.3 mm 12.5°
1
67%
15:00
21°
1011.8 hPa 0.7 mm 11.8°
2
65%
21:00
17°
1011.8 hPa 0.3 mm 12.1°
1
65%
 05:07     21:19    Daglengte: 16:12 Dinsdag 10 Aug
03:00
14°
1012.5 hPa 0.2 mm 11.2°
0
69%
09:00
16°
1012.5 hPa 0.7 mm 11.6°
0
75%
15:00
20°
1012.3 hPa 0.7 mm 11.2°
0
71%
21:00
16°
1012.0 hPa 0.2 mm 11.4°
0
63%
 05:10     21:16    Daglengte: 16:06 Woensdag 11 Aug
03:00
14°
1012.6 hPa 0.3 mm 10.9°
0
66%
09:00
16°
1012.6 hPa 0.4 mm 11.5°
1
67%
15:00
20°
1012.2 hPa 0.8 mm 11.2°
0
63%
21:00
16°
1012.0 hPa 0.3 mm 11.0°
0
66%
 05:12     21:13    Daglengte: 16:01 Donderdag 12 Aug
03:00
13°
1012.2 hPa 0.4 mm 10.9°
1
68%
  CAPE Lifted Index Hail Supercell Tornado SRH 3km CL BTM PRES CL TOP PRES Swiss DWD icon SMHI TS
 04:35     21:55    Daglengte: 17:20 Vandaag
08:00 0 J/kg 1.4 K 0 % 0 % 0 % 0 m²/s² 0 0 5.48 3
09:00 0 J/kg 1.1 K 0 % 0 % 0 % 0 m²/s² 0 0 3.74 3
10:00 0 J/kg 0.1 K 0 % 0 % 0 % 0 m²/s² 0 0 2.05 3
11:00 66 J/kg -0.2 K 0 % 0 % 0 % 0 m²/s² 0 0 0.79 3
12:00 78 J/kg -0.1 K 0 % 0 % 0 % 0 m²/s² 0 0 1.16 3
13:00 227 J/kg -0.6 K 0 % 0 % 0 % 0 m²/s² 0 0 -0.3 61
14:00 97 J/kg 0.1 K 0 % 0 % 0 % 0 m²/s² 0 0 0.13 3
15:00 84 J/kg -0.1 K 0 % 0 % 0 % 0 m²/s² 0 0 -0.01 61
16:00 107 J/kg -0.4 K 0 % 0 % 0 % 0 m²/s² 0 0 -0.4 61
17:00 107 J/kg -0.7 K 0 % 0 % 0 % 0 m²/s² 0 0 -0.67 61
18:00 321 J/kg -1.4 K 0 % 0 % 0 % 0 m²/s² 0 0 -0.59 80
19:00 514 J/kg -2.1 K 0 % 0 % 0 % 0 m²/s² 0 0 -0.78 95
20:00 458 J/kg -1.9 K 0 % 0 % 0 % 0 m²/s² 0 0 -0.64 95
21:00 498 J/kg -2.4 K 0 % 0 % 0 % 0 m²/s² 0 0 -1.65 80
22:00 462 J/kg -2.2 K 0 % 0 % 0 % 0 m²/s² 0 0 -1.03 80
23:00 734 J/kg -3.5 K 0 % 0 % 0 % 0 m²/s² 0 0 -2.3 80
 04:37     21:52    Daglengte: 17:15 Morgen
00:00 515 J/kg -2.1 K 0 % 0 % 0 % 0 m²/s² 0 0 0.51 3
01:00 194 J/kg -1.1 K 0 % 0 % 0 % 0 m²/s² 0 0 1.21 3
02:00 279 J/kg -1.4 K 0 % 0 % 0 % 0 m²/s² 0 0 0.58 3
03:00 166 J/kg -0.6 K 0 % 0 % 0 % 0 m²/s² 0 0 2.16 3
04:00 42 J/kg -0.7 K 0 % 0 % 0 % 0 m²/s² 0 0 2.12 3
05:00 20 J/kg -0.6 K 0 % 0 % 0 % 0 m²/s² 0 0 2.16 3
06:00 33 J/kg -0.6 K 0 % 0 % 0 % 0 m²/s² 0 0 2.01 3
07:00 80 J/kg -0.4 K 0 % 0 % 0 % 0 m²/s² 0 0 2.21 3
08:00 121 J/kg -0.4 K 0 % 0 % 0 % 0 m²/s² 0 0 2.36 3
09:00 481 J/kg -1.8 K 0 % 0 % 0 % 0 m²/s² 0 0 0.3 80
10:00 819 J/kg -2.7 K 0 % 0 % 0 % 0 m²/s² 0 0 -1.8 80
11:00 1099 J/kg -3.6 K 0 % 0 % 0 % 0 m²/s² 0 0 -3.03 95
12:00 1273 J/kg -4.0 K 0 % 0 % 0 % 0 m²/s² 0 0 -3.43 80
13:00 1275 J/kg -4.2 K 0 % 0 % 0 % 0 m²/s² 0 0 -3.15 95
14:00 1186 J/kg -4.1 K 0 % 0 % 0 % 0 m²/s² 0 0 -2.96 80
15:00 1036 J/kg -4.1 K 0 % 0 % 0 % 0 m²/s² 0 0 -3.2 80
16:00 951 J/kg -3.9 K 0 % 0 % 0 % 0 m²/s² 0 0 -2.79 80
17:00 1219 J/kg -5.0 K 0 % 0 % 0 % 0 m²/s² 0 0 -4.4 80
18:00 1067 J/kg -4.3 K 0 % 0 % 0 % 0 m²/s² 0 0 -2.83 3
19:00 870 J/kg -3.5 K 0 % 0 % 0 % 0 m²/s² 0 0 -0.35 3
20:00 749 J/kg -3.0 K 0 % 0 % 0 % 0 m²/s² 0 0 0.33 2
21:00 606 J/kg -2.2 K 0 % 0 % 0 % 0 m²/s² 0 0 0.92 2
22:00 149 J/kg -0.3 K 0 % 0 % 0 % 0 m²/s² 0 0 3.39 1
23:00 44 J/kg 0.8 K 0 % 0 % 0 % 0 m²/s² 0 0 3.77 1
 04:40     21:49    Daglengte: 17:09 Vrijdag 30 Jul
00:00 23 J/kg 1.1 K 0 % 0 % 0 % 0 m²/s² 0 0 3.83 2
01:00 19 J/kg 1.5 K 0 % 0 % 0 % 0 m²/s² 0 0 3.72 2
02:00 38 J/kg 0.9 K 0 % 0 % 0 % 0 m²/s² 0 0 3.78 2
03:00 119 J/kg 0.5 K 0 % 0 % 0 % 0 m²/s² 0 0 2.69 2
04:00 196 J/kg 0.0 K 0 % 0 % 0 % 0 m²/s² 0 0 3.39 2
05:00 278 J/kg -0.3 K 0 % 0 % 0 % 0 m²/s² 0 0 2.82 2
06:00 124 J/kg 0.9 K 0 % 0 % 0 % 0 m²/s² 0 0 2.64 2
07:00 170 J/kg 0.8 K 0 % 0 % 0 % 0 m²/s² 0 0 3.35 2
08:00 267 J/kg 0.4 K 0 % 0 % 0 % 0 m²/s² 0 0 3.82 2
09:00 271 J/kg 0.8 K 0 % 0 % 0 % 0 m²/s² 0 0 3.68 2
10:00 220 J/kg 1.3 K 0 % 0 % 0 % 0 m²/s² 0 0 4.36 2
11:00 274 J/kg 0.3 K 0 % 0 % 0 % 0 m²/s² 0 0 3.09 2
12:00 248 J/kg -0.3 K 0 % 0 % 0 % 0 m²/s² 0 0 1.41 2
13:00 503 J/kg -2.2 K 0 % 0 % 0 % 0 m²/s² 0 0 -0.49 2
14:00 739 J/kg -3.3 K 0 % 0 % 0 % 0 m²/s² 0 0 -1.47 2
15:00 806 J/kg -3.9 K 0 % 0 % 0 % 0 m²/s² 0 0 -1.02 3
16:00 953 J/kg -4.9 K 0 % 0 % 0 % 0 m²/s² 0 0 -2.2 2
17:00 946 J/kg -4.3 K 0 % 0 % 0 % 0 m²/s² 0 0 -3.04 2
18:00 749 J/kg -2.7 K 0 % 0 % 0 % 0 m²/s² 0 0 -1.38 2
19:00 593 J/kg -1.9 K 0 % 0 % 0 % 0 m²/s² 0 0 0.32 2
20:00 591 J/kg -2.2 K 0 % 0 % 0 % 0 m²/s² 0 0 1.01 2
21:00 591 J/kg -2.5 K 0 % 0 % 0 % 0 m²/s² 0 0 0.08 3
22:00 644 J/kg -2.5 K 0 % 0 % 0 % 0 m²/s² 0 0 0.89 3
23:00 253 J/kg -1.0 K 0 % 0 % 0 % 0 m²/s² 0 0 0.65 3
 04:42     21:47    Daglengte: 17:05 Zaterdag 31 Jul
00:00 122 J/kg -0.5 K 0 % 0 % 0 % 0 m²/s² 0 0 0.73 3
01:00 164 J/kg -0.5 K 0 % 0 % 0 % 0 m²/s² 0 0 1.42 3
02:00 82 J/kg 0.3 K 0 % 0 % 0 % 0 m²/s² 0 0 2.04 3
03:00 33 J/kg 0.9 K 0 % 0 % 0 % 0 m²/s² 0 0 1.02 2
04:00 7 J/kg -0.2 K 0 % 0 % 0 % 0 m²/s² 0 0 0.31 3
05:00 130 J/kg -0.9 K 0 % 0 % 0 % 0 m²/s² 0 0 2.46 2
06:00 2 J/kg 0.8 K 0 % 0 % 0 % 0 m²/s² 0 0 3.56 2
07:00 24 J/kg 0.5 K 0 % 0 % 0 % 0 m²/s² 0 0 1.73 3
Temp Baro Wind Neerslag
  EWN Forecast EWN WRFDA DWD ICON FMI HIRLAM MET Norway GFS
 04:35     21:55    Daglengte: 17:20 Vandaag
09:00 22.2° 1010.9 hPa 2.8 m/s 0.0 mm 20.9° 1010.4 hPa 2.6 m/s 0.0 mm 22.4° 1010.9 hPa 2.3 m/s -2.0 mm 22.8° 1011.0 hPa 2.8 m/s 0.0 mm 22.0° 1010.8 hPa 3.0 m/s
12:00 25.8° 1009.3 hPa 3.5 m/s 0.0 mm 22.9° 1008.9 hPa 3.1 m/s 0.0 mm 26.5° 1009.2 hPa 3.1 m/s 0.0 mm 26.2° 1009.6 hPa 4.0 m/s 0.0 mm 23.1° 1010.0 hPa 3.5 m/s
15:00 23.1° 1008.6 hPa 2.5 m/s 0.5 mm 18.4° 1009.0 hPa 1.3 m/s 2.2 mm 23.9° 1008.7 hPa 2.7 m/s 0.2 mm 23.6° 1008.4 hPa 2.2 m/s 0.0 mm 20.4° 1009.2 hPa 4.6 m/s
18:00 20.5° 1007.1 hPa 2.4 m/s 4.7 mm 19.3° 1007.3 hPa 4.1 m/s 12.0 mm 20.3° 1007.6 hPa 2.3 m/s 1.8 mm 23.1° 1007.0 hPa 1.6 m/s 0.0 mm 17.5° 1007.6 hPa 1.9 m/s
21:00 19.8° 1005.8 hPa 2.4 m/s 5.2 mm 18.9° 1005.5 hPa 3.7 m/s 16.1 mm 19.2° 1006.3 hPa 2.6 m/s 3.7 mm 22.1° 1005.6 hPa 2.3 m/s 0.0 mm 17.0° 1006.3 hPa 3.3 m/s
 04:37     21:52    Daglengte: 17:15 Morgen
00:00 19.4° 1004.5 hPa 2.8 m/s 4.3 mm 18.2° 1003.6 hPa 4.5 m/s 23.8 mm 18.5° 1004.8 hPa 2.7 m/s 1.4 mm 19.8° 1004.5 hPa 2.4 m/s 0.0 mm 16.8° 1005.0 hPa 2.6 m/s
03:00 18.9° 1003.4 hPa 3.0 m/s 0.0 mm 17.5° 1002.9 hPa 3.8 m/s 28.6 mm 18.3° 1003.5 hPa 1.9 m/s 0.0 mm 19.1° 1003.5 hPa 3.4 m/s 0.0 mm 15.9° 1003.6 hPa 2.1 m/s
06:00 18.0° 1002.2 hPa 3.2 m/s 0.0 mm 17.0° 1002.0 hPa 4.8 m/s 28.8 mm 18.1° 1002.1 hPa 2.6 m/s 0.0 mm 18.2° 1002.5 hPa 3.5 m/s 0.0 mm 16.5° 1003.1 hPa 2.5 m/s
09:00 19.2° 1000.8 hPa 4.1 m/s 4.6 mm 18.8° 1000.8 hPa 4.8 m/s 29.2 mm 19.3° 1000.6 hPa 3.7 m/s 0.5 mm 19.1° 1001.3 hPa 4.2 m/s 0.0 mm 18.9° 1001.8 hPa 3.4 m/s
12:00 20.7° 999.8 hPa 4.9 m/s 4.7 mm 21.4° 1000.2 hPa 4.8 m/s 30.0 mm 20.3° 999.5 hPa 4.9 m/s 1.8 mm 22.3° 1000.1 hPa 5.1 m/s 0.0 mm 23.2° 1000.8 hPa 5.0 m/s
15:00 21.5° 998.4 hPa 5.7 m/s 8.5 mm 21.3° 999.2 hPa 5.8 m/s 34.2 mm 21.4° 998.4 hPa 4.6 m/s 1.6 mm 24.1° 998.1 hPa 7.3 m/s 0.0 mm 23.1° 999.8 hPa 6.0 m/s
18:00 21.1° 997.2 hPa 5.4 m/s 11.1 mm 21.6° 997.8 hPa 5.9 m/s 51.8 mm 21.0° 997.0 hPa 4.2 m/s 0.6 mm 21.1° 997.0 hPa 5.8 m/s 0.0 mm 22.7° 999.1 hPa 5.3 m/s
21:00 20.4° 996.4 hPa 4.8 m/s 0.0 mm 20.7° 998.2 hPa 0.8 m/s 53.5 mm 19.2° 996.1 hPa 4.3 m/s 0.1 mm 20.6° 995.7 hPa 5.3 m/s 0.0 mm 20.4° 999.0 hPa 5.1 m/s
 04:40     21:49    Daglengte: 17:09 Vrijdag 30 Jul
00:00 17.8° 996.3 hPa 4.8 m/s 0.0 mm 17.2° 998.5 hPa 5.6 m/s 53.5 mm 17.0° 996.1 hPa 4.8 m/s 0.0 mm 17.8° 995.0 hPa 3.5 m/s 0.0 mm 17.7° 999.2 hPa 5.3 m/s
03:00 17.3° 995.8 hPa 5.1 m/s 0.0 mm 16.4° 999.1 hPa 4.5 m/s 53.5 mm 17.3° 995.3 hPa 5.1 m/s 0.0 mm 16.5° 994.2 hPa 5.0 m/s 0.0 mm 16.1° 999.3 hPa 4.6 m/s
06:00 17.1° 996.4 hPa 5.2 m/s 0.0 mm 16.8° 998.4 hPa 5.3 m/s 53.5 mm 16.9° 994.5 hPa 4.9 m/s 0.0 mm 16.1° 998.9 hPa 5.1 m/s
09:00 18.7° 995.8 hPa 6.4 m/s 0.0 mm 18.7° 998.1 hPa 6.5 m/s 53.5 mm 17.9° 994.2 hPa 6.7 m/s 0.0 mm 18.8° 997.9 hPa 6.2 m/s
12:00 19.8° 995.2 hPa 7.5 m/s 6.1 mm 19.8° 997.2 hPa 8.6 m/s 53.6 mm 19.1° 994.0 hPa 6.6 m/s 0.2 mm 19.9° 997.4 hPa 7.7 m/s
15:00 19.3° 994.2 hPa 7.1 m/s 19.0 mm 19.2° 996.4 hPa 8.6 m/s 54.0 mm 19.1° 993.4 hPa 6.3 m/s 0.2 mm 17.2° 997.0 hPa 6.7 m/s
18:00 19.1° 993.3 hPa 6.4 m/s 6.2 mm 19.0° 995.8 hPa 7.1 m/s 54.6 mm 18.6° 992.5 hPa 5.6 m/s 0.1 mm 16.1° 996.5 hPa 6.5 m/s
21:00 17.4° 992.6 hPa 4.9 m/s 4.0 mm 17.5° 994.5 hPa 5.0 m/s 55.1 mm 16.4° 992.3 hPa 3.9 m/s 0.2 mm 15.2° 995.0 hPa 5.8 m/s
 04:42     21:47    Daglengte: 17:05 Zaterdag 31 Jul
00:00 16.0° 991.4 hPa 3.5 m/s 0.0 mm 16.2° 991.5 hPa 6.9 m/s 55.1 mm 15.0° 992.2 hPa 3.1 m/s 0.0 mm 14.6° 993.2 hPa 5.8 m/s
03:00 15.6° 989.5 hPa 2.5 m/s 6.4 mm 16.2° 987.0 hPa 9.2 m/s 55.3 mm 14.7° 992.0 hPa 1.7 m/s 0.0 mm 13.6° 990.9 hPa 6.3 m/s
06:00 14.5° 991.3 hPa 3.2 m/s 0.0 mm 13.9° 985.2 hPa 9.1 m/s 79.0 mm 14.7° 992.8 hPa 1.7 m/s 0.0 mm 13.9° 989.2 hPa 4.1 m/s
09:00 16.7° 992.8 hPa 4.8 m/s 0.0 mm 15.0° 987.0 hPa 9.5 m/s 80.0 mm 17.2° 994.2 hPa 3.6 m/s 0.0 mm 13.4° 990.2 hPa 4.1 m/s
12:00 17.2° 992.2 hPa 5.7 m/s 25.2 mm 17.2° 992.2 hPa 5.7 m/s 25.2 mm
15:00 19.7° 995.0 hPa 5.7 m/s 26.0 mm 19.7° 995.0 hPa 5.7 m/s 26.0 mm
18:00 20.1° 996.5 hPa 4.5 m/s 26.5 mm 20.1° 996.5 hPa 4.5 m/s 26.5 mm
21:00 17.5° 998.1 hPa 3.5 m/s 26.6 mm 17.5° 998.1 hPa 3.5 m/s 26.6 mm
 04:45     21:44    Daglengte: 16:59 Zondag 01 Aug
00:00 14.5° 999.2 hPa 2.7 m/s 26.6 mm 14.5° 999.2 hPa 2.7 m/s 26.6 mm
03:00 13.1° 999.3 hPa 2.2 m/s 26.6 mm 13.1° 999.3 hPa 2.2 m/s 26.6 mm
06:00 13.2° 999.1 hPa 2.2 m/s 26.6 mm 13.2° 999.1 hPa 2.2 m/s 26.6 mm
09:00 17.8° 998.1 hPa 3.8 m/s 26.7 mm 17.8° 998.1 hPa 3.8 m/s 26.7 mm
12:00 14.8° 997.6 hPa 3.7 m/s 32.7 mm 14.8° 997.6 hPa 3.7 m/s 32.7 mm
15:00 17.8° 996.5 hPa 5.2 m/s 35.0 mm 17.8° 996.5 hPa 5.2 m/s 35.0 mm
18:00 18.0° 995.4 hPa 4.2 m/s 37.0 mm 18.0° 995.4 hPa 4.2 m/s 37.0 mm
21:00 15.9° 995.6 hPa 4.1 m/s 38.3 mm 15.9° 995.6 hPa 4.1 m/s 38.3 mm
 04:47     21:42    Daglengte: 16:55 Maandag 02 Aug
00:00 14.0° 997.7 hPa 4.0 m/s 38.4 mm 14.0° 997.7 hPa 4.0 m/s 38.4 mm
03:00 13.6° 998.5 hPa 4.0 m/s 38.4 mm 13.6° 998.5 hPa 4.0 m/s 38.4 mm
06:00 14.0° 1000.0 hPa 4.1 m/s 38.4 mm 14.0° 1000.0 hPa 4.1 m/s 38.4 mm
09:00 16.8° 1000.0 hPa 4.5 m/s 38.4 mm 16.8° 1000.0 hPa 4.5 m/s 38.4 mm
12:00 20.1° 1000.8 hPa 4.9 m/s 38.8 mm 20.1° 1000.8 hPa 4.9 m/s 38.8 mm
15:00 20.6° 1001.1 hPa 5.6 m/s 39.7 mm 20.6° 1001.1 hPa 5.6 m/s 39.7 mm
18:00 20.8° 1001.3 hPa 4.6 m/s 39.8 mm 20.8° 1001.3 hPa 4.6 m/s 39.8 mm
21:00 16.7° 1001.7 hPa 4.0 m/s 39.8 mm 16.7° 1001.7 hPa 4.0 m/s 39.8 mm
 04:50     21:39    Daglengte: 16:49 Dinsdag 03 Aug
00:00 14.3° 1001.7 hPa 3.0 m/s 39.8 mm 14.3° 1001.7 hPa 3.0 m/s 39.8 mm
03:00 14.0° 1002.3 hPa 2.0 m/s 39.8 mm 14.0° 1002.3 hPa 2.0 m/s 39.8 mm
06:00 12.4° 1003.0 hPa 2.9 m/s 39.9 mm 12.4° 1003.0 hPa 2.9 m/s 39.9 mm
09:00 15.6° 1004.4 hPa 4.8 m/s 39.9 mm 15.6° 1004.4 hPa 4.8 m/s 39.9 mm
12:00 17.9° 1006.1 hPa 4.3 m/s 40.0 mm 17.9° 1006.1 hPa 4.3 m/s 40.0 mm
15:00 19.8° 1007.3 hPa 3.2 m/s 40.2 mm 19.8° 1007.3 hPa 3.2 m/s 40.2 mm
18:00 20.0° 1007.9 hPa 3.1 m/s 40.2 mm 20.0° 1007.9 hPa 3.1 m/s 40.2 mm
21:00 16.6° 1009.2 hPa 1.8 m/s 40.2 mm 16.6° 1009.2 hPa 1.8 m/s 40.2 mm
 04:52     21:36    Daglengte: 16:44 Woensdag 04 Aug
00:00 15.2° 1010.5 hPa 2.1 m/s 40.2 mm 15.2° 1010.5 hPa 2.1 m/s 40.2 mm
03:00 14.7° 1011.3 hPa 1.9 m/s 40.2 mm 14.7° 1011.3 hPa 1.9 m/s 40.2 mm
06:00 14.4° 1011.9 hPa 1.5 m/s 40.2 mm 14.4° 1011.9 hPa 1.5 m/s 40.2 mm
09:00 16.4° 1012.8 hPa 1.0 m/s 40.2 mm 16.4° 1012.8 hPa 1.0 m/s 40.2 mm
15:00 20.5° 1012.8 hPa 1.0 m/s 40.2 mm 20.5° 1012.8 hPa 1.0 m/s 40.2 mm
21:00 16.3° 1013.4 hPa 2.2 m/s 40.2 mm 16.3° 1013.4 hPa 2.2 m/s 40.2 mm
 04:55     21:33    Daglengte: 16:38 Donderdag 05 Aug
03:00 12.3° 1014.7 hPa 0.5 m/s 40.2 mm 12.3° 1014.7 hPa 0.5 m/s 40.2 mm
09:00 17.5° 1014.8 hPa 2.6 m/s 40.2 mm 17.5° 1014.8 hPa 2.6 m/s 40.2 mm
15:00 21.9° 1013.5 hPa 3.6 m/s 40.2 mm 21.9° 1013.5 hPa 3.6 m/s 40.2 mm
21:00 16.8° 1012.9 hPa 2.6 m/s 40.2 mm 16.8° 1012.9 hPa 2.6 m/s 40.2 mm
 04:57     21:31    Daglengte: 16:34 Vrijdag 06 Aug
03:00 13.7° 1012.2 hPa 3.4 m/s 40.2 mm 13.7° 1012.2 hPa 3.4 m/s 40.2 mm
09:00 17.9° 1010.7 hPa 4.4 m/s 40.2 mm 17.9° 1010.7 hPa 4.4 m/s 40.2 mm
15:00 24.2° 1009.3 hPa 4.5 m/s 40.6 mm 24.2° 1009.3 hPa 4.5 m/s 40.6 mm
21:00 18.9° 1009.0 hPa 4.2 m/s 40.8 mm 18.9° 1009.0 hPa 4.2 m/s 40.8 mm
 05:00     21:28    Daglengte: 16:28 Zaterdag 07 Aug
03:00 13.1° 1011.8 hPa 1.8 m/s 0.7 mm
09:00 16.6° 1011.7 hPa 2.3 m/s 0.4 mm
15:00 21.2° 1010.9 hPa 3.0 m/s 0.4 mm
21:00 17.0° 1010.4 hPa 2.1 m/s 0.6 mm
 05:02     21:25    Daglengte: 16:23 Zondag 08 Aug
03:00 14.4° 1010.3 hPa 2.2 m/s 1.2 mm
09:00 16.7° 1009.8 hPa 2.3 m/s 1.7 mm
15:00 19.9° 1009.8 hPa 2.1 m/s 1.2 mm
21:00 16.6° 1009.9 hPa 1.2 m/s 0.8 mm
 05:05     21:22    Daglengte: 16:17 Maandag 09 Aug
03:00 13.7° 1010.9 hPa 0.9 m/s 0.2 mm
09:00 16.7° 1011.5 hPa 1.2 m/s 0.3 mm
15:00 21.1° 1011.8 hPa 1.7 m/s 0.7 mm
21:00 16.9° 1011.8 hPa 1.1 m/s 0.3 mm
 05:07     21:19    Daglengte: 16:12 Dinsdag 10 Aug
03:00 13.9° 1012.5 hPa 0.1 m/s 0.2 mm
09:00 16.3° 1012.5 hPa 0.5 m/s 0.7 mm
15:00 19.9° 1012.3 hPa 0.1 m/s 0.7 mm
21:00 16.4° 1012.0 hPa 0.1 m/s 0.2 mm
 05:10     21:16    Daglengte: 16:06 Woensdag 11 Aug
03:00 13.9° 1012.6 hPa 0.2 m/s 0.3 mm